Terug naar catalogus

YZ-1 R/B

ActiefMEO
NORAD 58656·ROCKET BODY·🇨🇳 China

Gelanceerd Dec 26, 2023 vanaf Xichang Satellite Launch Center

Loading…

Volgende Passages (komende 24 uur)

TLE

VersSource: Space-Track

Epoch: Sep 11, 2026, 23:29 UTC

1 58656U 23207C   26254.97896163 -.00000030  00000-0  00000-0 0  9996
2 58656  55.9188  61.8922 0025711 348.1597  11.8003  1.79266045 17763

Volg YZ-1 R/B in realtime met AllMySat

Download on the App Store